Find Kosmos-717

NORAD ID: 7684 Int'l Des: 1975-016 Owner: GUKOSR Country: SU operational
LEOCIRCULAR

Live-Position

3D-Globus wird geladen...

Über Kosmos-717

Beschreibung wird geladen...

Nächste Überflüge

Passes for default location (London). Set your location on the main map for personalized predictions.

Höhenverlauf

Loading altitude history...

Zweizeiliger Elementsatz

1 07684U 75016G 26106.08928368 .00000006 00000-0 15734-3 0 9992
2 07684 73.9998 114.6552 0034777 113.6526 304.7390 12.39834086314141
Epoch: 16. Apr. 2026 • Age: 16 hours

Aktueller Status

Höhe 1492.5 km
Geschwindigkeit 7.13 km/s
Subsatellitenpunkt 13.35°N, 171.83°E
Typ other

Most Searched